This is the latest recevied weather packets stored in our database for station/object KG4GJX. If no packets are shown the sender has not sent any weather packets the latest 10 day(s).
| Time | Temp. | Humidity | Pressure | Rain* | Wind** | Luminosity | Snow |
|---|---|---|---|---|---|---|---|
| 1787868444 | 33.33° C | 51% | 1014.5 hPa | 0 mm | - | - | - |
| 1787867782 | 33.33° C | 51% | 1014.2 hPa | 0 mm | - | - | - |
| 1787867119 | 32.78° C | 53% | 1014.2 hPa | 0 mm | - | - | - |
| 1787866457 | 32.78° C | 53% | 1014.2 hPa | 0 mm | - | - | - |
| 1787865795 | 32.78° C | 51% | 1014.5 hPa | 0 mm | - | - | - |
| 1787865132 | 33.89° C | 47% | 1014.5 hPa | 0 mm | - | - | - |
| 1787864470 | 33.33° C | 49% | 1014.5 hPa | 0 mm | - | - | - |
| 1787863807 | 33.89° C | 50% | 1014.5 hPa | 0 mm | - | - | - |
| 1787863145 | 33.33° C | 50% | 1014.5 hPa | 0 mm | - | - | - |
| 1787862482 | 33.33° C | 51% | 1014.9 hPa | 0 mm | - | - | - |
| 1787861820 | 33.89° C | 52% | 1014.9 hPa | 0 mm | - | - | - |
| 1787861157 | 33.89° C | 51% | 1014.9 hPa | 0 mm | - | - | - |
| 1787860495 | 33.33° C | 54% | 1014.9 hPa | 0 mm | - | - | - |
| 1787859832 | 32.78° C | 54% | 1014.9 hPa | 0 mm | - | - | - |
| 1787859170 | 33.33° C | 54% | 1015.2 hPa | 0 mm | - | - | - |
| 1787858507 | 32.22° C | 56% | 1015.2 hPa | 0 mm | - | - | - |
| 1787857845 | 31.67° C | 61% | 1015.2 hPa | 0 mm | - | - | - |
| 1787857182 | 31.67° C | 60% | 1015.5 hPa | 0 mm | - | - | - |
| 1787856520 | 31.11° C | 58% | 1015.5 hPa | 0 mm | - | - | - |
| 1787855857 | 31.67° C | 59% | 1015.5 hPa | 0 mm | - | - | - |
| 1787855195 | 32.22° C | 60% | 1015.5 hPa | 0 mm | - | - | - |
| 1787854533 | 31.67° C | 61% | 1015.9 hPa | 0 mm | - | - | - |
| 1787853870 | 31.67° C | 58% | 1015.9 hPa | 0 mm | - | - | - |
| 1787853207 | 31.11° C | 61% | 1015.9 hPa | 0 mm | - | - | - |
| 1787852545 | 31.11° C | 61% | 1016.2 hPa | 0 mm | - | - | - |
* Rain latest hour (hover to see other rain measurements)
** Current wind speed in m/s (hover to see current wind gust speed)